Wind_Speed
46 51 58 57 59 66 70 76 82 85 91 97 98 89 87 83 62 47 41 39 37 40 37 36 33 32 25 24 29 37 49 53 56 56 61 61 64 71 83 89 93 96 96 101
48 51 55 60 61 66 70 75 80 84 92 96 101 94 92 84 73 53 46 40 39 38 38 39 40 39 33 29 26 30 38 50 56 57 58 61 64 65 68 73 83 95 100 102
45 53 58 63 64 66 71 76 81 83 91 97 102 99 93 92 76 62 52 44 41 40 38 39 42 40 39 35 35 31 30 39 50 57 60 62 63 68 70 72 74 77 84 93
46 51 60 67 62 65 70 76 80 85 92 96 104 95 91 103 74 71 54 48 44 42 42 42 42 40 42 42 38 36 35 31 36 49 57 61 63 63 67 70 73 76 79 83
49 56 64 70 66 68 72 75 81 85 92 98 102 102 89 97 83 76 63 52 50 49 45 44 42 39 41 42 45 45 44 37 34 34 46 56 60 63 64 66 70 73 75 74
57 62 68 74 70 68 71 77 83 84 93 97 103 102 86 107 83 72 69 57 52 53 52 49 46 45 45 44 47 49 49 48 43 35 35 44 55 60 61 63 68 69 67 64
62 67 72 71 70 72 77 81 84 84 89 98 103 102 93 110 86 70 73 61 55 56 57 54 51 49 50 51 51 51 51 50 47 41 37 39 44 53 61 63 63 64 64 60
61 67 71 70 71 73 79 84 88 90 91 101 104 107 98 110 93 74 77 64 58 60 60 60 58 57 55 54 55 54 54 50 51 45 41 40 43 47 53 61 63 64 64 61
64 70 73 75 75 78 80 84 86 91 95 99 105 109 105 107 95 85 79 67 58 62 64 64 62 61 60 60 58 58 57 55 54 50 45 45 44 46 50 56 62 64 65 64
67 71 77 77 78 82 86 87 91 93 97 102 105 111 107 106 98 87 86 67 63 64 66 64 63 64 63 61 59 60 61 58 58 55 50 47 46 46 49 51 58 65 66 65
72 73 80 81 82 85 91 93 95 95 101 105 107 112 110 105 102 92 85 70 65 67 68 69 69 69 69 66 63 63 64 63 62 57 53 49 48 48 49 50 53 60 66 68
77 77 78 84 85 88 93 95 94 100 104 105 110 111 114 110 103 93 86 78 72 68 66 68 69 70 72 71 68 66 67 67 64 59 53 52 49 50 51 51 53 56 62 67
82 81 80 87 89 92 98 103 100 105 110 106 113 119 121 113 106 97 94 85 78 72 69 70 70 72 74 76 73 72 70 69 65 61 54 51 52 50 52 54 54 55 58 64
85 89 90 96 98 97 104 110 110 109 111 110 117 121 120 113 107 101 95 90 86 81 74 71 73 75 77 80 79 77 71 67 67 60 56 51 49 51 53 55 58 58 59 62
89 90 94 100 102 101 105 110 117 115 119 120 120 126 119 114 106 103 97 91 88 85 79 75 75 78 82 85 81 76 69 68 66 59 54 50 46 49 54 57 60 61 61 63
94 98 99 101 107 105 106 113 118 120 120 129 131 129 120 117 110 101 98 94 92 87 82 80 79 80 83 83 76 70 70 67 63 57 52 49 48 47 52 56 60 63 65 65
102 105 106 104 110 107 106 115 118 120 125 131 132 127 123 117 112 105 101 99 94 89 85 84 82 85 84 82 76 74 71 66 60 53 52 50 49 49 50 53 58 62 65 67
109 113 114 113 116 111 114 120 123 125 130 130 130 131 124 117 111 105 102 97 95 91 88 87 87 88 87 85 77 73 69 63 59 53 51 52 51 50 51 52 54 59 62 66
112 116 119 120 121 116 121 129 129 130 130 135 137 132 120 116 110 106 103 98 94 92 89 88 88 90 89 86 77 70 65 61 57 55 53 52 53 53 53 53 54 56 60 64
119 120 124 128 128 129 133 138 136 136 138 139 136 128 121 115 109 106 102 100 96 95 89 88 89 88 89 81 73 67 64 61 57 55 53 54 54 55 56 57 57 58 59 61
125 126 127 131 135 134 137 139 143 144 141 144 141 131 121 115 109 102 106 105 102 100 87 85 85 86 83 76 71 66 64 62 59 57 56 56 57 58 59 58 58 60 62 63
130 132 131 136 141 143 144 144 146 147 147 143 138 129 119 111 109 106 105 101 98 96 91 84 82 82 78 73 69 66 65 63 62 60 58 59 59 59 59 59 59 60 62 64
136 137 140 142 144 148 148 145 146 148 143 141 138 129 118 108 105 104 103 98 97 95 90 83 82 80 76 72 68 66 65 64 63 61 60 60 59 59 60 60 61 61 61 62
136 140 142 144 147 148 144 144 145 147 140 135 135 125 115 110 107 103 102 99 93 89 86 85 80 78 72 68 67 67 66 63 61 60 59 59 58 58 57 58 58 60 61 62
140 139 141 146 149 147 142 142 140 137 139 140 131 117 112 109 107 107 104 99 93 89 87 82 77 72 69 70 68 66 63 61 59 58 57 55 55 55 56 56 58 60 61 63
142 148 149 149 148 141 139 137 135 136 135 132 120 114 110 109 108 106 101 96 92 87 83 79 73 70 70 69 66 63 60 58 56 55 53 52 53 55 57 58 60 62 64 65
Wind_Direction
5 6 7 8 10 13 13 13 11 11 11 8 11 7 7 6 356 351 344 341 343 350 352 358 4 358 342 315 287 271 260 255 252 253 251 247 247 246 244 241 242 241 241 241
360 1 1 3 5 10 10 8 8 6 7 5 5 7 6 5 4 352 348 341 342 346 350 356 359 1 358 346 319 294 272 264 257 255 253 252 250 249 247 246 246 245 243 243
357 358 356 358 1 6 8 6 6 2 3 3 1 4 0 3 2 356 349 346 343 344 347 351 353 355 357 358 354 334 306 281 266 261 256 254 254 252 251 250 250 250 249 248
349 351 352 352 355 2 6 5 5 0 359 2 358 3 360 1 358 357 348 345 345 346 347 347 345 345 345 346 349 349 344 321 293 268 260 257 255 255 253 252 253 254 254 255
346 346 349 350 352 358 2 3 360 358 355 357 357 360 2 358 356 353 349 345 343 343 342 341 340 339 338 338 340 338 335 332 322 300 274 261 255 254 253 251 251 253 253 254
341 342 343 343 346 354 358 358 356 355 352 354 352 358 360 355 356 348 348 344 342 341 336 334 337 335 333 332 331 328 325 323 320 311 294 275 261 253 253 254 253 254 253 252
336 338 341 341 346 352 355 355 353 352 350 350 350 352 353 353 355 347 345 342 338 336 334 332 331 330 331 328 328 325 320 318 315 305 298 287 273 261 254 252 255 256 256 256
335 338 337 342 344 349 353 351 350 351 349 348 348 348 351 352 353 349 345 340 334 331 331 331 327 325 325 324 324 321 318 318 313 307 295 287 278 269 261 254 251 253 254 254
332 333 334 336 341 345 348 345 347 349 348 348 346 343 347 350 349 349 342 339 331 325 327 330 329 325 324 322 320 319 319 312 314 306 297 291 278 270 266 261 256 252 253 253
330 330 330 334 340 342 340 341 344 343 344 344 344 340 345 347 347 345 344 338 328 323 322 323 326 325 321 320 322 320 319 315 311 306 297 292 280 271 266 262 259 256 254 253
328 327 328 335 342 340 336 336 341 340 343 344 344 337 342 345 343 343 343 337 327 324 320 320 317 317 319 320 318 318 317 314 311 306 299 291 284 272 266 263 261 258 253 251
324 322 327 333 339 337 333 333 337 338 340 341 339 340 338 342 340 340 339 336 331 323 319 318 315 312 313 315 316 316 313 313 308 303 298 292 284 276 267 263 260 259 257 251
321 325 332 333 334 333 330 330 336 337 337 339 335 339 337 339 338 337 336 334 331 326 321 320 318 316 315 314 314 314 314 311 306 299 294 289 282 276 270 265 263 261 258 253
324 329 332 330 330 330 328 329 333 333 334 337 333 337 336 335 334 334 332 333 331 329 323 319 318 318 317 316 314 314 314 310 307 298 291 286 281 276 271 266 263 261 258 254
324 327 329 328 325 328 328 328 329 330 331 334 332 334 334 331 330 329 330 330 329 326 324 319 319 319 319 317 314 313 314 310 308 298 290 286 280 273 268 264 261 260 259 255
322 323 324 324 323 327 324 325 327 328 328 330 331 331 331 329 326 325 326 327 327 326 324 321 319 316 318 319 318 315 314 310 308 298 289 285 281 275 270 267 265 263 261 259
320 321 321 323 321 325 322 321 325 325 326 327 327 328 328 325 324 324 324 325 326 325 322 319 316 315 317 317 316 316 313 309 306 299 291 286 282 278 273 269 266 265 263 261
319 319 320 320 318 321 320 321 322 322 326 325 326 326 326 323 322 323 323 322 322 321 320 317 315 314 315 316 314 313 312 308 302 298 291 286 283 280 278 273 268 265 263 262
314 315 316 316 316 318 317 319 321 322 323 323 323 325 323 322 323 320 320 319 318 318 316 314 315 314 314 315 313 311 311 307 300 296 292 287 284 281 279 277 274 269 265 263
312 313 315 315 316 317 317 319 320 320 321 323 323 323 323 320 322 320 319 316 314 314 313 313 313 314 315 314 313 312 309 306 300 295 291 288 285 282 281 279 277 274 270 267
310 312 312 313 314 316 316 317 317 318 320 321 322 322 321 320 321 317 314 314 313 311 310 311 313 315 315 313 312 311 308 304 300 295 292 288 286 284 282 279 277 275 273 271
308 309 310 311 311 313 313 314 314 315 317 319 319 319 320 320 319 315 314 312 310 311 310 311 313 314 312 310 309 308 305 302 298 295 292 289 288 285 283 280 278 275 274 272
307 307 308 308 309 310 310 312 313 313 316 317 317 317 317 320 317 313 311 312 312 314 312 312 312 312 310 308 306 305 303 300 297 295 292 290 288 286 284 282 279 277 274 272
304 304 305 305 307 308 309 310 311 312 313 314 314 316 319 318 316 313 315 315 314 314 312 312 312 311 310 308 306 304 302 300 297 295 293 291 289 287 284 282 280 278 276 274
301 302 303 303 306 307 307 308 309 310 311 311 314 316 317 317 315 315 315 315 313 313 313 312 311 309 309 309 308 305 302 300 298 296 294 292 290 288 286 284 281 279 278 277
301 300 301 302 304 305 305 305 305 308 308 311 315 315 315 315 315 315 316 317 315 314 313 312 311 311 311 310 308 306 304 302 300 297 295 293 291 289 288 286 284 283 282 280
Height
10778 10771 10762 10755 10746 10737 10727 10716 10708 10700 10688 10678 10670 10657 10646 10635 10623 10613 10604 10595 10586 10578 10570 10563 10555 10548 10542 10538 10536 10533 10531 10531 10532 10535 10538 10539 10542 10545 10549 10552 10556 10560 10563 10569
10776 10768 10761 10751 10741 10730 10721 10713 10700 10693 10686 10672 10665 10653 10640 10630 10619 10607 10599 10589 10582 10575 10566 10558 10551 10545 10538 10532 10528 10526 10523 10520 10519 10520 10522 10524 10527 10528 10531 10533 10536 10539 10541 10546
10772 10764 10756 10746 10736 10725 10715 10707 10696 10688 10679 10669 10656 10644 10636 10623 10612 10602 10592 10584 10576 10568 10562 10555 10548 10543 10537 10531 10524 10518 10515 10513 10508 10505 10507 10508 10510 10511 10512 10515 10516 10519 10520 10522
10766 10759 10752 10744 10734 10723 10714 10703 10692 10680 10671 10665 10654 10638 10631 10613 10603 10597 10589 10579 10570 10562 10555 10549 10543 10537 10530 10524 10518 10512 10506 10501 10500 10496 10492 10492 10492 10492 10494 10497 10498 10499 10500 10500
10760 10752 10745 10738 10728 10717 10706 10698 10687 10675 10660 10652 10646 10634 10625 10608 10596 10587 10578 10569 10562 10554 10547 10541 10535 10529 10522 10516 10509 10503 10497 10491 10485 10482 10481 10477 10475 10474 10475 10477 10478 10479 10481 10482
10750 10744 10737 10729 10721 10711 10701 10689 10680 10671 10657 10645 10636 10631 10619 10608 10594 10579 10569 10560 10552 10545 10539 10532 10524 10517 10511 10505 10498 10491 10484 10478 10473 10468 10463 10462 10461 10458 10457 10458 10460 10460 10460 10461
10743 10735 10729 10720 10711 10700 10692 10685 10677 10668 10658 10641 10628 10622 10608 10601 10588 10573 10560 10552 10543 10535 10528 10521 10514 10507 10499 10492 10485 10478 10471 10465 10459 10453 10448 10443 10441 10441 10440 10439 10440 10440 10439 10440
10738 10730 10723 10712 10703 10692 10684 10676 10667 10658 10649 10635 10615 10607 10597 10589 10577 10566 10554 10543 10532 10524 10517 10508 10501 10494 10487 10478 10471 10463 10457 10450 10443 10437 10432 10427 10422 10420 10420 10421 10421 10421 10421 10422
10729 10718 10711 10702 10691 10678 10672 10666 10659 10650 10639 10629 10612 10595 10588 10579 10568 10558 10546 10536 10525 10514 10505 10497 10488 10481 10473 10464 10456 10448 10441 10434 10428 10421 10415 10409 10405 10402 10399 10398 10399 10400 10401 10402
10721 10711 10701 10691 10679 10666 10655 10650 10643 10634 10627 10619 10604 10580 10577 10570 10557 10545 10534 10523 10514 10503 10491 10483 10474 10466 10459 10451 10441 10432 10424 10416 10409 10403 10397 10391 10386 10383 10381 10379 10379 10379 10380 10382
10709 10703 10687 10675 10669 10657 10644 10636 10630 10622 10609 10600 10595 10570 10564 10560 10547 10533 10521 10512 10502 10492 10480 10469 10459 10449 10443 10433 10424 10416 10407 10398 10390 10382 10376 10371 10367 10363 10362 10360 10359 10359 10359 10361
10698 10690 10684 10665 10657 10648 10634 10626 10621 10612 10603 10589 10579 10570 10550 10542 10531 10518 10508 10500 10491 10481 10471 10459 10448 10436 10425 10414 10406 10397 10388 10379 10369 10362 10356 10350 10346 10343 10341 10341 10340 10339 10339 10339
10685 10673 10670 10657 10651 10641 10620 10609 10606 10594 10581 10578 10557 10547 10528 10522 10514 10501 10492 10482 10472 10465 10456 10445 10433 10421 10408 10394 10385 10375 10365 10356 10348 10341 10335 10329 10325 10321 10320 10320 10320 10319 10319 10319
10667 10656 10649 10636 10630 10624 10606 10586 10583 10576 10569 10566 10543 10540 10515 10501 10491 10481 10471 10462 10450 10441 10433 10425 10414 10401 10388 10375 10363 10353 10343 10334 10325 10317 10313 10308 10305 10301 10299 10299 10299 10298 10298 10298
10653 10646 10637 10625 10617 10613 10594 10578 10562 10553 10541 10539 10532 10517 10507 10492 10480 10467 10455 10444 10432 10421 10412 10401 10390 10379 10367 10354 10341 10330 10320 10311 10302 10294 10290 10286 10284 10281 10278 10276 10275 10275 10276 10276
10637 10631 10625 10620 10603 10598 10583 10567 10557 10543 10529 10519 10508 10500 10483 10472 10461 10449 10436 10426 10414 10400 10388 10378 10368 10357 10347 10333 10320 10310 10299 10290 10281 10273 10269 10266 10263 10261 10259 10256 10255 10254 10254 10254
10618 10609 10605 10604 10587 10583 10571 10556 10546 10534 10520 10504 10492 10481 10469 10455 10442 10429 10414 10401 10391 10379 10367 10355 10344 10334 10325 10312 10300 10289 10278 10270 10263 10256 10251 10247 10243 10240 10238 10236 10234 10233 10232 10232
10594 10585 10578 10578 10565 10567 10552 10539 10529 10519 10506 10488 10478 10465 10453 10438 10423 10408 10395 10383 10371 10360 10346 10333 10321 10311 10301 10291 10281 10270 10258 10249 10242 10238 10233 10228 10224 10220 10218 10216 10214 10212 10210 10210
10579 10570 10558 10552 10544 10544 10533 10516 10505 10495 10490 10471 10459 10443 10428 10414 10403 10388 10375 10361 10349 10339 10326 10313 10300 10287 10276 10267 10257 10247 10238 10230 10223 10218 10213 10209 10205 10201 10197 10195 10193 10191 10189 10187
10560 10550 10539 10522 10514 10509 10500 10487 10476 10467 10461 10449 10439 10424 10411 10395 10382 10365 10351 10338 10326 10314 10302 10290 10277 10265 10253 10242 10233 10224 10217 10210 10204 10198 10193 10189 10185 10181 10177 10174 10171 10169 10166 10165
10536 10527 10517 10501 10486 10486 10474 10463 10452 10440 10429 10419 10409 10399 10384 10370 10356 10343 10330 10316 10303 10290 10277 10264 10253 10241 10230 10220 10212 10203 10196 10190 10184 10179 10173 10168 10164 10160 10156 10153 10149 10146 10144 10142
10519 10504 10496 10482 10467 10459 10451 10438 10426 10416 10405 10394 10383 10374 10361 10346 10331 10316 10301 10289 10276 10265 10253 10241 10229 10219 10209 10200 10191 10184 10176 10170 10163 10157 10152 10146 10142 10138 10134 10130 10128 10125 10121 10119
10497 10485 10473 10463 10450 10435 10426 10415 10404 10391 10380 10369 10355 10345 10334 10321 10309 10294 10278 10264 10251 10240 10229 10217 10206 10195 10186 10178 10169 10162 10155 10148 10142 10135 10130 10124 10120 10115 10111 10107 10105 10102 10099 10096
10478 10467 10455 10439 10433 10418 10407 10392 10380 10367 10355 10344 10334 10323 10307 10293 10282 10267 10251 10237 10225 10214 10204 10194 10182 10172 10162 10154 10147 10140 10133 10126 10119 10113 10108 10103 10098 10094 10090 10086 10083 10080 10077 10074
10455 10443 10431 10419 10407 10394 10384 10371 10355 10344 10333 10319 10307 10297 10283 10270 10256 10240 10225 10213 10202 10191 10180 10169 10159 10149 10140 10132 10124 10117 10110 10103 10098 10092 10087 10082 10077 10073 10070 10066 10062 10059 10055 10051
10433 10417 10400 10391 10382 10370 10360 10347 10332 10322 10308 10297 10285 10272 10259 10247 10232 10217 10203 10190 10179 10167 10157 10146 10136 10127 10118 10109 10101 10095 10088 10082 10077 10072 10068 10063 10059 10055 10050 10045 10042 10038 10031 10027